Tracking 30743 objects as of 22-Jun-2025
HD Live streaming from Space Station
objects crossing your sky now

STARLINK-6076

Track STARLINK-6076 now!
10-day predictions
STARLINK-6076 is classified as:


NORAD ID: 56100
Int'l Code: 2023-046H
Perigee: 565.5 km
Apogee: 567.0 km
Inclination: 43.0 °
Period: 95.8 minutes
Semi major axis: 6937 km
RCS: Unknown
Launch date: March 29, 2023
Source: United States (US)
Launch site: AIR FORCE EASTERN TEST RANGE (AFETR)
Your satellite tracking list
Your tracking list is empty




NASA's NSSDC Master Catalog

Two Line Element Set (TLE):
1 56100U 23046H   25173.31303115  .00000533  00000-0  54549-4 0  9994
2 56100  43.0032 133.8439 0001098 276.7669  83.3049 15.02530596122893
Source of the keplerian elements: AFSPC